Location: Hall+in+Tirol
(47.2830°N, 11.5170°E)
Time: 09:05:42
(UTC+02:00)

Daily predictions for brighter satellites

Satellite Brightness Start Highest point End
(mag) Time Altitude Azimuth Time Altitude Azimuth Time Altitude Azimuth
Cosmos 2219 Rocket 4.4 21:44:31 10° NW 21:48:48 22° W 21:53:03 10° SSW
Cosmos 2333 Rocket 4.1 21:45:24 10° NW 21:50:01 26° WSW 21:54:37 10° SSW
Lacrosse 4 Rocket 2.2 21:45:55 10° SW 21:50:08 59° NW 21:54:28 10° NNE
CZ-4B DEB 3.8 21:48:40 10° S 21:51:29 40° W 21:54:20 10° NNW
Cosmos 1908 3.3 21:50:37 10° N 21:54:30 63° E 21:58:20 10° SSE
Cosmos 1674 2.9 21:55:11 10° S 21:58:50 49° E 22:02:28 10° NNE
Abrixas rocket 2.4 21:56:39 10° W 21:59:54 74° N 22:03:10 10° E
Cosmos 1408 Rocket 4.3 21:56:31 10° SSE 22:00:23 34° E 22:04:18 10° NNE
Terra 3.2 22:01:26 10° ESE 22:05:18 25° ENE 22:09:12 10° N
NOAA 11 4.3 22:00:32 10° SSE 22:05:58 81° WSW 22:11:26 10° NNW
Cosmos 2208 Rocket 4.1 22:00:59 10° NNW 22:06:19 86° WSW 22:11:42 10° SSE
Cosmos 1076 Rocket 3.6 22:02:51 10° S 22:07:09 62° E 22:11:29 10° NNE
KORONAS-FOTON 4.3 22:04:51 10° SSE 22:08:27 42° E 22:12:03 10° NNE
Cosmos 1184 Rocket 3.9 22:05:26 10° SSW 22:08:41 48° WNW 22:11:59 10° N
Cosmos 1356 Rocket 3.6 22:05:03 10° S 22:09:12 59° E 22:13:28 10° NNE
Cosmos 332 Rocket 4.3 22:10:29 10° NNW 22:15:14 48° ENE 22:19:44 11° SE
Cosmos 2221 3.1 22:11:00 10° NNW 22:15:19 58° W 22:19:38 10° S
Okean 3 Rocket 3.8 22:11:23 10° SSW 22:15:53 79° W 22:20:23 10° N
Meteor 1-21 Rocket 4.2 22:11:33 10° S 22:17:13 71° E 22:22:48 10° NNE
SPOT 1/Viking Rocket 3.7 22:14:10 10° SSE 22:19:15 66° ENE 22:24:23 10° N
Cosmos 1570 Rocket 4.5 22:15:58 10° NNW 22:21:13 60° WSW 22:26:23 10° S
Cosmos 2100 Rocket 4.2 22:17:10 10° NNW 22:23:28 76° W 22:29:47 10° S
Cosmos 2061 Rocket 4.1 22:17:10 10° N 22:23:34 87° W 22:29:59 10° S
Cosmos 1140 Rocket 4.5 22:19:04 10° SW 22:24:06 51° WNW 22:29:08 10° NNE
Cosmos 1459 Rocket 4.2 22:17:50 10° N 22:24:11 79° W 22:30:23 10° S
Cosmos 2297 Rocket 3.3 22:20:10 10° SW 22:25:37 48° WNW 22:31:08 10° NNE
Cosmos 841 Rocket 4.5 22:21:32 10° N 22:26:23 35° ENE 22:30:51 12° ESE
SL-08 RB Rocket 3.8 22:23:41 10° SSE 22:28:14 87° WSW 22:32:53 10° NNW
Cosmos 1763 Rocket 4.1 22:25:18 10° NNW 22:30:15 45° ENE 22:34:29 13° SE
Cosmos 2151 4.4 22:27:45 13° SE 22:30:25 22° E 22:33:45 10° NE
Tiangong 1 1.7 22:27:58 10° SW 22:30:27 28° S 22:32:08 16° ESE
CARTOSAT-1 4.4 22:27:01 13° SE 22:30:31 38° ENE 22:34:32 10° N
RESURS DK-1 2.5 22:28:07 10° NNW 22:32:18 72° ENE 22:35:41 15° SE
YAOGAN 11 4.5 22:28:17 10° S 22:32:45 67° WSW 22:37:18 10° NNW
USA 234 3.3 22:28:03 10° ENE 22:34:32 62° SE 22:40:59 10° SW
Cosmos 1766 Rocket 3.5 22:31:09 10° S 22:35:28 83° E 22:39:51 10° N
Cosmos 1867 3.5 22:31:25 10° SSW 22:36:50 73° ESE 22:42:18 10° NE
Cosmos 2173 Rocket 4.3 22:30:57 10° NNW 22:37:02 65° W 22:43:10 10° S
USA 245 3.7 22:34:05 10° S 22:37:18 55° W 22:41:23 10° NNW
Cosmos 2263 Rocket 3.5 22:35:13 14° SE 22:38:19 21° E 22:42:26 10° NE
Cosmos 2123 Rocket 4.1 22:32:24 10° S 22:38:27 60° E 22:44:33 10° NNE
ERBS 2.8 22:35:23 10° NW 22:38:44 55° NNE 22:41:33 14° ESE
Cosmos 2228 Rocket 3.3 22:36:13 10° N 22:40:48 63° ENE 22:44:27 16° SSE
Cosmos 1328 Rocket 3.6 22:36:45 10° N 22:41:06 68° E 22:44:34 16° SSE
Cosmos 1242 Rocket 3.9 22:38:25 10° NNW 22:41:53 37° W 22:45:19 10° SSW
Cosmos 1515 Rocket 3.8 22:40:02 10° N 22:44:18 53° ENE 22:47:26 17° SSE
H-2A ROCKET BODY 4.3 22:41:59 12° SSE 22:45:01 16° SE 22:52:33 10° ESE
Nimbus 7 Rocket 4.4 22:40:46 10° NNE 22:46:50 77° ESE 22:52:49 10° SSW
ATLAS 5 CENTAUR R/B 2.1 22:42:17 10° SW 22:47:00 74° NW 22:52:14 10° NE
Meteor 2-10 4.2 22:43:11 10° N 22:48:47 79° ENE 22:53:32 15° SSE
H-2A R/B 2.5 22:48:51 17° SE 22:51:55 49° ENE 22:56:02 10° N
Cosmos 1743 Rocket 3.7 22:48:27 15° S 22:51:57 57° E 22:56:13 10° NNE
SL-14 R/B 3.3 22:49:00 14° S 22:52:17 64° E 22:56:13 10° NNE
Cosmos 1151 Rocket 3.4 22:50:11 10° N 22:54:31 53° ENE 22:57:25 19° SSE
SPOT 5 3.8 22:51:42 10° S 22:56:18 44° W 23:01:10 10° NNW
Cosmos 1328 3.8 22:53:34 14° S 22:56:55 72° E 23:00:58 10° NNE
Cosmos 468 Rocket 4.2 22:51:56 10° NNW 22:57:02 64° WSW 23:01:07 16° S
Cosmos 1603 3.9 22:51:40 10° NNW 22:57:19 68° WSW 23:01:44 17° SSE
Lacrosse 5 2.0 22:52:50 10° NW 22:57:52 66° SW 23:01:25 19° SE
Cosmos 1725 Rocket 4.0 22:52:03 10° N 22:58:22 85° W 23:03:48 14° S
Cosmos 1300 2.9 22:58:19 10° NNW 23:02:09 67° W 23:04:56 17° S
H-2A R/B 2.6 22:58:53 12° S 23:03:44 56° W 23:09:06 10° NNW
Cosmos 371 Rocket 3.3 23:01:31 10° NNW 23:06:21 76° WSW 23:09:42 20° SSE
Cosmos 2084 3.9 23:04:46 10° SW 23:08:38 56° NW 23:12:25 10° NE
Cosmos 1626 2.9 23:07:11 24° SE 23:08:47 35° E 23:12:14 10° NNE
IGS 5A 3.4 23:08:03 21° SSE 23:10:47 88° WSW 23:14:59 10° NNW
Cosmos 1726 3.3 23:08:40 10° NNW 23:12:06 37° W 23:14:58 13° SSW
SL-16 R/B 4.3 23:09:56 10° NW 23:13:48 19° W 23:17:40 10° SW
Cosmos 1943 3.2 23:09:13 10° NNW 23:14:54 88° ENE 23:18:44 22° SSE
DELTA 2 DEB (DPAF) 4.4 23:25:32 25° SE 23:28:00 61° ENE 23:32:25 10° N
SL-19 R/B 4.0 23:29:19 35° ESE 23:30:03 47° ENE 23:32:52 10° N
CZ-4B R/B 3.8 23:25:09 10° NNE 23:30:21 54° E 23:33:24 24° S
DMSP B5D2-2 4.5 23:26:59 10° N 23:32:12 64° WNW 23:37:20 10° SSW
CZ-4C R/B 3.8 23:30:03 27° SE 23:32:13 60° ENE 23:36:33 10° N
CZ-4 R/B 3.8 23:29:42 10° NNE 23:34:37 71° ESE 23:37:36 23° S
deb Chang Zheng 4 3.5 23:30:40 10° NNE 23:35:03 80° ESE 23:37:45 23° S
Cosmos 220 Rocket 4.3 23:31:00 11° SSW 23:35:13 71° WNW 23:39:38 10° NNE
Cosmos 1455 2.3 23:32:22 10° N 23:36:15 67° E 23:37:50 33° SSE
Cosmos 540 Rocket 3.7 23:31:15 10° NNW 23:36:25 63° ENE 23:39:20 25° SE
Abrixas rocket 2.5 23:33:27 10° W 23:36:35 45° SSW 23:37:06 41° S
Meteor 1-11 4.4 23:33:51 15° SSW 23:38:42 81° WNW 23:44:33 10° N
ALOS 2 4.2 23:36:58 16° ESE 23:39:22 25° ENE 23:42:55 10° N
Sich 1 4.1 23:39:59 24° ESE 23:41:20 29° E 23:45:03 10° NNE
Terra 2.6 23:39:43 19° SSW 23:42:50 43° W 23:47:23 10° NNW
PSLV R/B 3.5 23:43:15 37° SSW 23:43:59 49° W 23:46:47 10° NNW
Cosmos 1707 Rocket 4.0 23:41:45 10° N 23:46:09 53° ENE 23:48:07 30° SE
Cosmos 1354 Rocket 4.1 23:45:10 25° S 23:48:08 61° ESE 23:53:18 10° NNE
CZ-2C R/B 3.7 23:44:28 10° NE 23:49:05 29° E 23:51:01 23° SE
Cosmos 2058 3.4 23:50:15 21° SSW 23:52:55 59° WNW 23:57:06 10° N
